Location: Inglewood
(33.9617°N, 118.3531°W)
Time: 11:06:51
(UTC+00:00)

Cosmos 1125 Rocket - Pass Details

Date: 03 August 2024
Orbit: 756 x 776 km, 74.0° (Epoch: 10 September)

Event Time Altitude Azimuth Distance (km) Brightness Sun altitude
Rises 12:29:24 0° 335° (NNW) 3,224 6.8 -7.9°
Reaches altitude 10° 12:31:52 10° 328° (NNW) 2,292 5.9 -7.5°
Maximum altitude 12:36:45 43° 258° (WSW) 1,054 3.8 -6.6°
Drops below altitude 10° 12:41:36 10° 188° (S) 2,272 5.6 -5.6°
Sets 12:44:03 0° 181° (S) 3,193 6.4 -5.2°
